CPA273 VHHH-LGAV

Flight info

Callsign CPA273
Flight time N/A
Altitude 34000
Route PECAN V10 SIKOU/K0915S1040 R339 BSE A599 LINSO/N0492F340 A599 CTG B465 CEA R460 GGC/N0493F360 R460 LKN M890 SULOM L509 TAPIS P173 DAVET/N0490F380 B475 DOLOS B449 MAMED P130 REBLO UM11 CRM UW71 HAVZA/N0477F400 UW71 BAG/N0475F390 UW77 HALIL/N0478F400 UT54 KFK UR32 IMR UR20 SITRU DCT VARIX
Aircraft B77L/H-SDE1E2E3FGHIJ2J3J4J5M1RWXY/LB1D1

Departure

Time 2026-04-30 19:42
Airport Hong Kong International Airport (VHHH)

Arrival

Time N/A
Airport Athens Eleftherios Venizelos International Airport (LGAV)
Time Latitude Longitude Altitude Speed Heading
2026-04-30 19:05 22.31300 113.92970 40 ft 0 kts 340°
2026-04-30 19:27 22.31288 113.92974 36 ft 4 kts 340°
2026-04-30 19:27 22.31239 113.92993 37 ft 4 kts 339°
2026-04-30 19:28 22.31220 113.93007 36 ft 4 kts 286°
2026-04-30 19:28 22.31227 113.93047 37 ft 1 kts 251°
2026-04-30 19:29 22.31227 113.93048 36 ft 0 kts 251°
2026-04-30 19:31 22.31227 113.93047 36 ft 2 kts 251°
2026-04-30 19:31 22.31215 113.93009 35 ft 6 kts 250°
2026-04-30 19:31 22.31186 113.92922 39 ft 8 kts 250°
2026-04-30 19:32 22.31146 113.92875 39 ft 9 kts 205°
2026-04-30 19:32 22.31080 113.92843 39 ft 11 kts 206°
2026-04-30 19:32 22.31002 113.92801 39 ft 13 kts 206°
2026-04-30 19:32 22.30915 113.92755 39 ft 15 kts 206°
2026-04-30 19:33 22.30833 113.92685 39 ft 16 kts 244°
2026-04-30 19:33 22.30795 113.92568 39 ft 17 kts 252°
2026-04-30 19:33 22.30755 113.92442 39 ft 18 kts 249°
2026-04-30 19:33 22.30709 113.92308 39 ft 20 kts 250°
2026-04-30 19:34 22.30661 113.92165 39 ft 21 kts 251°
2026-04-30 19:34 22.30614 113.92015 39 ft 22 kts 251°
2026-04-30 19:34 22.30583 113.91734 39 ft 18 kts 327°
2026-04-30 19:35 22.30702 113.91685 40 ft 19 kts 341°
2026-04-30 19:35 22.30831 113.91637 40 ft 20 kts 341°
2026-04-30 19:35 22.30967 113.91585 40 ft 21 kts 340°
2026-04-30 19:35 22.31109 113.91530 40 ft 22 kts 340°
2026-04-30 19:36 22.31254 113.91477 40 ft 22 kts 341°
2026-04-30 19:36 22.31395 113.91418 38 ft 22 kts 323°
2026-04-30 19:36 22.31352 113.91165 40 ft 19 kts 251°
2026-04-30 19:37 22.31307 113.91024 39 ft 21 kts 251°
2026-04-30 19:37 22.31258 113.90874 40 ft 22 kts 251°
2026-04-30 19:37 22.31206 113.90714 40 ft 23 kts 251°
2026-04-30 19:37 22.31153 113.90547 40 ft 24 kts 251°
2026-04-30 19:38 22.31099 113.90376 40 ft 24 kts 251°
2026-04-30 19:38 22.31042 113.90207 40 ft 24 kts 250°
2026-04-30 19:38 22.31001 113.90081 40 ft 13 kts 251°
2026-04-30 19:38 22.30970 113.89988 40 ft 13 kts 249°
2026-04-30 19:39 22.30939 113.89895 40 ft 13 kts 250°
2026-04-30 19:39 22.30951 113.89814 40 ft 11 kts 320°
2026-04-30 19:39 22.30968 113.89803 39 ft 0 kts 333°
2026-04-30 19:41 22.31002 113.89786 40 ft 16 kts 335°
2026-04-30 19:41 22.31092 113.89804 40 ft 12 kts 56°
2026-04-30 19:41 22.31126 113.89889 40 ft 16 kts 71°
2026-04-30 19:41 22.31213 113.90164 40 ft 74 kts 71°
2026-04-30 19:42 22.31467 113.90947 40 ft 145 kts 71°
2026-04-30 19:42 22.31859 113.92175 214 ft 187 kts 71°
2026-04-30 19:42 22.32266 113.93475 1147 ft 182 kts 71°
2026-04-30 19:42 22.32695 113.94818 1897 ft 196 kts 71°
2026-04-30 19:43 22.33163 113.96260 2569 ft 210 kts 71°
2026-04-30 19:43 22.33814 113.97694 3196 ft 215 kts 59°
2026-04-30 19:43 22.34617 113.99077 3881 ft 221 kts 56°
2026-04-30 19:44 22.36465 114.01847 5257 ft 233 kts 54°
2026-04-30 19:44 22.37400 114.03298 5919 ft 238 kts 56°
2026-04-30 19:44 22.38307 114.04804 6573 ft 241 kts 57°
2026-04-30 19:44 22.39275 114.06308 7216 ft 246 kts 53°
2026-04-30 19:45 22.40082 114.07950 7790 ft 253 kts 81°
2026-04-30 19:45 22.39888 114.09771 8451 ft 248 kts 116°
2026-04-30 19:45 22.39174 114.11490 9156 ft 250 kts 116°
2026-04-30 19:45 22.38481 114.13220 9725 ft 259 kts 116°
2026-04-30 19:46 22.37750 114.15040 10244 ft 269 kts 116°
2026-04-30 19:46 22.36984 114.16931 10748 ft 279 kts 116°
2026-04-30 19:46 22.36191 114.18892 11264 ft 290 kts 116°
2026-04-30 19:46 22.35372 114.20921 11731 ft 299 kts 116°
2026-04-30 19:47 22.34517 114.23032 12144 ft 314 kts 116°
2026-04-30 19:47 22.33931 114.24480 12498 ft 320 kts 116°
2026-04-30 19:47 22.32355 114.27173 13005 ft 316 kts 146°
2026-04-30 19:47 22.30451 114.28294 13009 ft 310 kts 162°
2026-04-30 19:48 22.29134 114.28891 13003 ft 310 kts 160°
2026-04-30 19:48 22.26492 114.30199 13122 ft 321 kts 161°
2026-04-30 19:48 22.24403 114.31198 13225 ft 335 kts 157°
2026-04-30 19:48 22.23021 114.32074 13270 ft 348 kts 148°
2026-04-30 19:49 22.21057 114.33707 13412 ft 364 kts 145°
2026-04-30 19:49 22.16840 114.37132 13763 ft 393 kts 147°
2026-04-30 19:49 22.13880 114.39467 14195 ft 403 kts 147°
2026-04-30 19:50 22.12342 114.40670 14476 ft 402 kts 149°
2026-04-30 19:50 22.09901 114.41974 14748 ft 398 kts 170°
2026-04-30 19:50 22.07170 114.42200 15141 ft 392 kts 190°
2026-04-30 19:50 22.04495 114.41541 15625 ft 388 kts 204°
2026-04-30 19:51 22.02147 114.40227 16096 ft 385 kts 217°
2026-04-30 19:51 21.99937 114.38519 16543 ft 387 kts 218°
2026-04-30 19:51 21.97721 114.36846 16968 ft 390 kts 218°
2026-04-30 19:51 21.95506 114.35208 17399 ft 392 kts 219°
2026-04-30 19:52 21.93315 114.33440 17766 ft 396 kts 221°
2026-04-30 19:52 21.91144 114.31572 17989 ft 403 kts 222°
2026-04-30 19:52 21.88955 114.29661 18303 ft 407 kts 222°
2026-04-30 19:52 21.86746 114.27742 18662 ft 408 kts 222°
2026-04-30 19:53 21.84527 114.25829 19017 ft 409 kts 221°
2026-04-30 19:53 21.82295 114.23919 19372 ft 411 kts 221°
2026-04-30 19:53 21.80048 114.22003 19700 ft 413 kts 221°
2026-04-30 19:53 21.77790 114.20083 20018 ft 415 kts 221°
2026-04-30 19:54 21.75520 114.18154 20340 ft 417 kts 221°
2026-04-30 19:54 21.73239 114.16216 20647 ft 418 kts 221°
2026-04-30 19:54 21.70946 114.14268 20977 ft 420 kts 221°
2026-04-30 19:54 21.68678 114.12343 21285 ft 422 kts 221°
2026-04-30 19:55 21.66371 114.10385 21594 ft 422 kts 221°
2026-04-30 19:55 21.63893 114.08665 21722 ft 431 kts 207°
2026-04-30 19:55 21.60981 114.07777 21878 ft 436 kts 194°
2026-04-30 19:55 21.57987 114.07149 21990 ft 441 kts 196°
2026-04-30 19:56 21.54991 114.06403 22321 ft 441 kts 197°
2026-04-30 19:56 21.52013 114.05616 22681 ft 441 kts 198°
2026-04-30 19:56 21.49028 114.04829 22998 ft 442 kts 198°
2026-04-30 19:56 21.46036 114.04049 23255 ft 444 kts 198°
2026-04-30 19:57 21.43095 114.03067 23471 ft 440 kts 209°
2026-04-30 19:57 21.40523 114.01348 23571 ft 435 kts 219°
2026-04-30 19:57 21.38037 113.99459 23697 ft 440 kts 218°
2026-04-30 19:57 21.35501 113.97594 23937 ft 441 kts 217°
2026-04-30 19:58 21.32951 113.95762 24217 ft 441 kts 217°
2026-04-30 19:58 21.30390 113.93946 24468 ft 442 kts 216°
2026-04-30 19:58 21.27845 113.92152 24662 ft 444 kts 216°
2026-04-30 19:58 21.25254 113.90328 24862 ft 446 kts 216°
2026-04-30 19:59 21.22654 113.88497 25072 ft 448 kts 216°
2026-04-30 19:59 21.20016 113.86639 25302 ft 449 kts 216°
2026-04-30 19:59 21.14788 113.82956 25745 ft 451 kts 216°
2026-04-30 20:00 21.12213 113.81103 25923 ft 450 kts 220°
2026-04-30 20:00 21.09933 113.78824 26039 ft 449 kts 232°
2026-04-30 20:00 21.08111 113.76115 26239 ft 448 kts 240°
2026-04-30 20:00 21.06705 113.73143 26476 ft 445 kts 250°
2026-04-30 20:01 21.04714 113.66827 26743 ft 450 kts 252°
2026-04-30 20:01 21.03715 113.63642 26927 ft 452 kts 252°
2026-04-30 20:01 21.02703 113.60449 27059 ft 455 kts 251°
2026-04-30 20:02 21.00639 113.54024 27143 ft 464 kts 251°
2026-04-30 20:02 20.99576 113.50744 27168 ft 468 kts 251°
2026-04-30 20:03 20.97419 113.44116 27224 ft 474 kts 251°
2026-04-30 20:03 20.96330 113.40773 27243 ft 477 kts 251°
2026-04-30 20:03 20.95237 113.37422 27317 ft 478 kts 251°
2026-04-30 20:03 20.94139 113.34057 27471 ft 478 kts 251°
2026-04-30 20:04 20.93045 113.30706 27657 ft 476 kts 251°
2026-04-30 20:04 20.91953 113.27363 27860 ft 475 kts 251°
2026-04-30 20:04 20.90865 113.24032 28022 ft 474 kts 251°
2026-04-30 20:05 20.88687 113.17374 28351 ft 474 kts 251°
2026-04-30 20:05 20.87599 113.14051 28536 ft 473 kts 251°
2026-04-30 20:05 20.85425 113.07419 28882 ft 473 kts 251°
2026-04-30 20:06 20.84334 113.04096 29018 ft 473 kts 251°
2026-04-30 20:06 20.83245 113.00781 29199 ft 472 kts 251°
2026-04-30 20:06 20.82170 112.97511 29401 ft 471 kts 251°
2026-04-30 20:06 20.81086 112.94214 29629 ft 470 kts 251°
2026-04-30 20:07 20.80002 112.90921 29830 ft 469 kts 251°
2026-04-30 20:07 20.78921 112.87640 30030 ft 468 kts 251°
2026-04-30 20:07 20.76755 112.81071 30376 ft 467 kts 250°
2026-04-30 20:08 20.75675 112.77798 30548 ft 467 kts 250°
2026-04-30 20:08 20.74593 112.74523 30662 ft 468 kts 250°
2026-04-30 20:08 20.73504 112.71229 30802 ft 469 kts 250°
2026-04-30 20:08 20.72418 112.67945 30985 ft 468 kts 250°
2026-04-30 20:09 20.71349 112.64716 31166 ft 467 kts 250°
2026-04-30 20:09 20.70266 112.61447 31352 ft 467 kts 250°
2026-04-30 20:09 20.68096 112.54904 31707 ft 466 kts 250°
2026-04-30 20:10 20.65925 112.48364 31915 ft 468 kts 250°
2026-04-30 20:10 20.64836 112.45090 31981 ft 468 kts 250°
2026-04-30 20:11 20.61563 112.35256 31993 ft 469 kts 250°
2026-04-30 20:11 20.59377 112.28699 31991 ft 469 kts 250°
2026-04-30 20:12 20.56269 112.18834 31981 ft 465 kts 261°
2026-04-30 20:12 20.56114 112.15423 32007 ft 466 kts 273°
2026-04-30 20:13 20.56596 112.11953 31981 ft 469 kts 282°
2026-04-30 20:13 20.57680 112.08714 31984 ft 470 kts 294°
2026-04-30 20:13 20.59151 112.05599 32005 ft 471 kts 294°
2026-04-30 20:14 20.62098 111.99322 31997 ft 475 kts 294°
2026-04-30 20:14 20.65007 111.92957 31998 ft 478 kts 293°
2026-04-30 20:15 20.67903 111.86534 31999 ft 480 kts 293°
2026-04-30 20:15 20.70779 111.80138 31989 ft 481 kts 293°
2026-04-30 20:16 20.73679 111.73686 31991 ft 481 kts 293°
2026-04-30 20:16 20.76574 111.67242 31991 ft 480 kts 293°
2026-04-30 20:17 20.79457 111.60815 31992 ft 479 kts 293°
2026-04-30 20:17 20.82332 111.54401 31997 ft 478 kts 293°
2026-04-30 20:18 20.84895 111.47879 31986 ft 474 kts 285°
2026-04-30 20:18 20.86571 111.41084 31997 ft 472 kts 283°
2026-04-30 20:19 20.88223 111.34337 31989 ft 472 kts 283°
2026-04-30 20:19 20.89912 111.27554 31984 ft 472 kts 283°
2026-04-30 20:20 20.91606 111.20768 31989 ft 472 kts 283°
2026-04-30 20:20 20.93297 111.13976 31990 ft 472 kts 283°
2026-04-30 20:21 20.94987 111.07169 31989 ft 473 kts 283°
2026-04-30 20:21 20.96693 111.00349 31979 ft 474 kts 283°
2026-04-30 20:22 20.98423 110.93522 31986 ft 475 kts 283°
2026-04-30 20:22 21.00138 110.86740 31987 ft 476 kts 283°
2026-04-30 20:23 21.01862 110.79891 31986 ft 476 kts 283°
2026-04-30 20:23 21.03582 110.73041 31987 ft 477 kts 283°
2026-04-30 20:24 21.05301 110.66184 31981 ft 477 kts 283°
2026-04-30 20:24 21.07022 110.59306 31974 ft 478 kts 283°
2026-04-30 20:25 21.09598 110.48987 31989 ft 478 kts 283°
2026-04-30 20:26 21.12173 110.38648 31979 ft 479 kts 284°
2026-04-30 20:26 21.15731 110.28680 31974 ft 483 kts 297°
2026-04-30 20:27 21.22170 110.16029 31990 ft 484 kts 297°
2026-04-30 20:28 21.28625 110.03301 31988 ft 488 kts 298°
2026-04-30 20:30 21.36687 109.87280 31985 ft 491 kts 298°
2026-04-30 20:31 21.46391 109.67892 31979 ft 491 kts 298°
2026-04-30 20:32 21.54434 109.51772 31980 ft 490 kts 298°
2026-04-30 20:33 21.59476 109.42231 31984 ft 490 kts 304°
2026-04-30 20:34 21.66004 109.33780 31986 ft 489 kts 310°
2026-04-30 20:35 21.72590 109.25374 31993 ft 490 kts 309°
2026-04-30 20:35 21.79142 109.16928 31982 ft 490 kts 309°
2026-04-30 20:36 21.83494 109.11317 31983 ft 491 kts 309°
2026-04-30 20:37 21.89343 109.03817 31996 ft 491 kts 309°
2026-04-30 20:37 21.93751 108.98197 31991 ft 491 kts 309°
2026-04-30 20:38 21.98159 108.92564 32010 ft 491 kts 309°
2026-04-30 20:38 22.02556 108.86933 32008 ft 491 kts 309°
2026-04-30 20:39 22.09141 108.78488 31994 ft 490 kts 309°
2026-04-30 20:40 22.15696 108.70092 31997 ft 489 kts 309°
2026-04-30 20:40 22.20087 108.64487 32010 ft 489 kts 309°
2026-04-30 20:41 22.26659 108.56082 32001 ft 488 kts 309°
2026-04-30 20:41 22.31033 108.50475 32005 ft 488 kts 309°
2026-04-30 20:42 22.35404 108.44867 32025 ft 488 kts 309°
2026-04-30 20:43 22.41963 108.36476 32027 ft 487 kts 309°
2026-04-30 20:43 22.46278 108.30894 32028 ft 486 kts 309°
2026-04-30 20:44 22.52794 108.22491 32026 ft 486 kts 309°
2026-04-30 20:45 22.61653 108.11421 32028 ft 486 kts 312°
2026-04-30 20:45 22.66324 108.06131 32014 ft 486 kts 313°
2026-04-30 20:46 22.75630 107.95544 32010 ft 486 kts 312°
2026-04-30 20:47 22.82601 107.87549 32017 ft 486 kts 312°
2026-04-30 20:48 22.89563 107.79554 32015 ft 486 kts 312°
2026-04-30 20:48 22.94201 107.74221 32007 ft 486 kts 312°
2026-04-30 20:49 22.98841 107.68880 32013 ft 486 kts 312°
2026-04-30 20:50 23.05799 107.60864 32010 ft 486 kts 312°
2026-04-30 20:50 23.10507 107.55629 31999 ft 482 kts 313°
2026-04-30 20:51 23.15094 107.50307 32026 ft 483 kts 311°
2026-04-30 20:51 23.21917 107.42267 32013 ft 486 kts 312°
2026-04-30 20:52 23.26553 107.36893 32009 ft 487 kts 312°
2026-04-30 20:53 23.33546 107.28803 32009 ft 489 kts 312°
2026-04-30 20:53 23.38212 107.23393 32004 ft 490 kts 312°
2026-04-30 20:54 23.45186 107.15291 32000 ft 491 kts 312°
2026-04-30 20:55 23.52180 107.07154 32000 ft 490 kts 312°
2026-04-30 20:55 23.56833 107.01732 31992 ft 489 kts 312°
2026-04-30 20:56 23.63784 106.93622 31993 ft 487 kts 312°
2026-04-30 20:57 23.70701 106.85537 31983 ft 485 kts 312°
2026-04-30 20:57 23.75307 106.80146 31979 ft 484 kts 312°
2026-04-30 20:58 23.82165 106.72106 31982 ft 484 kts 311°
2026-04-30 20:58 23.86751 106.66723 31981 ft 483 kts 311°
2026-04-30 20:59 23.90952 106.61037 31984 ft 480 kts 299°
2026-04-30 20:59 23.92460 106.57784 31970 ft 480 kts 292°
2026-04-30 21:00 23.95710 106.43686 31978 ft 479 kts 282°
2026-04-30 21:01 23.97835 106.32977 31973 ft 481 kts 282°
2026-04-30 21:02 24.00007 106.22247 31967 ft 482 kts 282°
2026-04-30 21:02 24.01443 106.15138 31963 ft 481 kts 282°
2026-04-30 21:03 24.02882 106.07985 31971 ft 481 kts 282°
2026-04-30 21:03 24.04315 106.00839 31965 ft 481 kts 282°
2026-04-30 21:04 24.05744 105.93699 31971 ft 480 kts 282°
2026-04-30 21:04 24.07876 105.83013 31961 ft 478 kts 282°
2026-04-30 21:05 24.09290 105.75902 31974 ft 478 kts 282°
2026-04-30 21:05 24.10697 105.68845 31968 ft 477 kts 283°
2026-04-30 21:06 24.12378 105.61824 31979 ft 476 kts 285°
2026-04-30 21:06 24.14153 105.54828 31966 ft 476 kts 285°
2026-04-30 21:07 24.15883 105.47826 31977 ft 475 kts 284°
2026-04-30 21:07 24.17572 105.40863 31973 ft 476 kts 284°
2026-04-30 21:08 24.19268 105.33849 31978 ft 477 kts 284°
2026-04-30 21:08 24.20966 105.26819 31973 ft 477 kts 284°
2026-04-30 21:09 24.22654 105.19784 31970 ft 478 kts 283°
2026-04-30 21:09 24.24236 105.12709 31974 ft 478 kts 283°
2026-04-30 21:10 24.25785 105.05609 31975 ft 478 kts 283°
2026-04-30 21:10 24.27331 104.98558 31976 ft 478 kts 283°
2026-04-30 21:11 24.28891 104.91472 31980 ft 478 kts 282°
2026-04-30 21:11 24.30449 104.84399 31978 ft 477 kts 282°
2026-04-30 21:12 24.32002 104.77327 31976 ft 476 kts 282°
2026-04-30 21:12 24.33548 104.70271 31981 ft 475 kts 282°
2026-04-30 21:13 24.35085 104.63230 31994 ft 474 kts 282°
2026-04-30 21:13 24.36620 104.56193 31989 ft 474 kts 282°
2026-04-30 21:14 24.38141 104.49199 32010 ft 474 kts 282°
2026-04-30 21:14 24.39669 104.42147 32011 ft 475 kts 282°
2026-04-30 21:15 24.41198 104.35082 32034 ft 475 kts 282°
2026-04-30 21:15 24.42722 104.28019 32039 ft 476 kts 282°
2026-04-30 21:16 24.44246 104.20950 32053 ft 476 kts 282°
2026-04-30 21:16 24.45756 104.13923 32062 ft 476 kts 282°
2026-04-30 21:17 24.47273 104.06841 32075 ft 477 kts 282°
2026-04-30 21:17 24.48788 103.99758 32066 ft 476 kts 282°
2026-04-30 21:18 24.50297 103.92683 32086 ft 475 kts 282°
2026-04-30 21:18 24.51801 103.85615 32086 ft 475 kts 282°
2026-04-30 21:19 24.53300 103.78556 32089 ft 475 kts 282°
2026-04-30 21:19 24.55327 103.71637 32088 ft 477 kts 291°
2026-04-30 21:20 24.58230 103.65117 32102 ft 478 kts 294°
2026-04-30 21:20 24.61180 103.58570 32104 ft 478 kts 294°
2026-04-30 21:21 24.64106 103.51997 32101 ft 479 kts 294°
2026-04-30 21:22 24.68617 103.42197 32099 ft 474 kts 295°
2026-04-30 21:23 24.74205 103.29000 32133 ft 482 kts 293°
2026-04-30 21:23 24.78645 103.19010 32147 ft 485 kts 294°
2026-04-30 21:24 24.81596 103.12323 32137 ft 486 kts 293°
2026-04-30 21:24 24.84530 103.05632 32154 ft 484 kts 293°
2026-04-30 21:25 24.88902 102.95640 32152 ft 482 kts 293°
2026-04-30 21:26 24.92762 102.86807 32159 ft 479 kts 293°
2026-04-30 21:27 24.97155 102.76924 32168 ft 478 kts 293°
2026-04-30 21:27 25.00079 102.70354 32159 ft 477 kts 293°
2026-04-30 21:28 25.04451 102.60483 32140 ft 477 kts 292°
2026-04-30 21:28 25.06637 102.53751 32130 ft 466 kts 271°
2026-04-30 21:29 25.06530 102.50202 32161 ft 463 kts 260°
2026-04-30 21:29 25.02843 102.40465 32146 ft 464 kts 241°
2026-04-30 21:30 24.99742 102.34180 32134 ft 467 kts 242°
2026-04-30 21:31 24.92135 102.18344 32087 ft 467 kts 242°
2026-04-30 21:32 24.87607 102.08886 32093 ft 467 kts 242°
2026-04-30 21:32 24.84573 102.02561 32088 ft 466 kts 242°
2026-04-30 21:33 24.80029 101.93111 32089 ft 464 kts 242°
2026-04-30 21:34 24.77009 101.86838 32055 ft 463 kts 242°
2026-04-30 21:34 24.72491 101.77466 32067 ft 461 kts 242°
2026-04-30 21:35 24.69482 101.71240 32051 ft 460 kts 242°
2026-04-30 21:35 24.66474 101.65019 32065 ft 460 kts 241°
2026-04-30 21:36 24.63469 101.58813 32033 ft 460 kts 241°
2026-04-30 21:37 24.57423 101.46486 32027 ft 460 kts 241°
2026-04-30 21:37 24.54367 101.40304 32034 ft 460 kts 240°
2026-04-30 21:38 24.51312 101.34121 32031 ft 462 kts 240°
2026-04-30 21:38 24.48248 101.27926 32019 ft 462 kts 241°
2026-04-30 21:39 24.45230 101.21739 32024 ft 461 kts 240°
2026-04-30 21:39 24.42143 101.15570 32033 ft 461 kts 240°
2026-04-30 21:40 24.39060 101.09385 32035 ft 462 kts 240°
2026-04-30 21:40 24.35979 101.03193 32033 ft 462 kts 240°
2026-04-30 21:41 24.32900 100.97001 32034 ft 462 kts 240°
2026-04-30 21:41 24.29818 100.90815 32009 ft 462 kts 240°
2026-04-30 21:42 24.26756 100.84677 32020 ft 461 kts 240°
2026-04-30 21:42 24.23671 100.78501 32017 ft 461 kts 240°
2026-04-30 21:43 24.20594 100.72348 32007 ft 461 kts 240°
2026-04-30 21:43 24.17514 100.66196 32001 ft 460 kts 240°
2026-04-30 21:44 24.14436 100.60056 32003 ft 459 kts 240°
2026-04-30 21:44 24.11350 100.53924 32005 ft 459 kts 240°
2026-04-30 21:45 24.08254 100.47869 31990 ft 458 kts 239°
2026-04-30 21:45 24.05135 100.41804 31981 ft 457 kts 239°
2026-04-30 21:46 24.02024 100.35753 31948 ft 456 kts 240°
2026-04-30 21:46 23.98927 100.29719 31984 ft 454 kts 240°
2026-04-30 21:47 23.95827 100.23699 31972 ft 453 kts 240°
2026-04-30 21:47 23.92721 100.17666 31986 ft 454 kts 240°
2026-04-30 21:48 23.89634 100.11680 31974 ft 455 kts 240°
2026-04-30 21:48 23.86523 100.05657 31955 ft 455 kts 240°
2026-04-30 21:49 23.83418 99.99651 31963 ft 454 kts 240°
2026-04-30 21:49 23.80313 99.93651 31960 ft 453 kts 240°
2026-04-30 21:50 23.77206 99.87656 31978 ft 452 kts 240°
2026-04-30 21:50 23.74148 99.81660 31967 ft 449 kts 241°
2026-04-30 21:51 23.71218 99.75698 31948 ft 445 kts 239°
2026-04-30 21:51 23.68038 99.69883 31952 ft 446 kts 239°
2026-04-30 21:52 23.64917 99.64022 31956 ft 447 kts 239°
2026-04-30 21:52 23.61850 99.58139 31962 ft 449 kts 239°
2026-04-30 21:53 23.58758 99.52200 31942 ft 451 kts 239°
2026-04-30 21:53 23.55655 99.46258 31949 ft 450 kts 239°
2026-04-30 21:54 23.52713 99.40226 31960 ft 450 kts 245°
2026-04-30 21:54 23.50599 99.33794 31950 ft 451 kts 250°
2026-04-30 21:55 23.48636 99.27376 31965 ft 448 kts 249°
2026-04-30 21:55 23.46638 99.20952 31950 ft 447 kts 249°
2026-04-30 21:56 23.44641 99.14550 31945 ft 445 kts 249°
2026-04-30 21:56 23.42651 99.08168 31935 ft 445 kts 249°
2026-04-30 21:57 23.40660 99.01801 31944 ft 442 kts 249°
2026-04-30 21:57 23.38674 98.95454 31949 ft 444 kts 249°
2026-04-30 21:58 23.36661 98.89095 31918 ft 449 kts 249°
2026-04-30 21:58 23.34525 98.82705 31917 ft 449 kts 248°
2026-04-30 21:59 23.32361 98.76327 31902 ft 449 kts 248°
2026-04-30 22:00 23.29140 98.66772 31954 ft 448 kts 248°
2026-04-30 22:00 23.25918 98.57191 31935 ft 451 kts 248°
2026-04-30 22:01 23.23769 98.50817 31931 ft 452 kts 248°
2026-04-30 22:01 23.21598 98.44387 31943 ft 453 kts 248°
2026-04-30 22:02 23.19422 98.37950 31916 ft 450 kts 248°
2026-04-30 22:02 23.17267 98.31613 31912 ft 447 kts 249°
2026-04-30 22:03 23.15295 98.25265 31919 ft 443 kts 247°
2026-04-30 22:03 23.13010 98.18991 31929 ft 450 kts 248°
2026-04-30 22:04 23.10794 98.12586 31911 ft 455 kts 249°
2026-04-30 22:05 23.07519 98.02934 31908 ft 456 kts 249°
2026-04-30 22:05 23.05314 97.96463 31911 ft 457 kts 249°
2026-04-30 22:06 23.03097 97.89981 31908 ft 458 kts 249°
2026-04-30 22:06 22.99762 97.80245 31899 ft 459 kts 249°
2026-04-30 22:07 22.97995 97.73637 31899 ft 460 kts 257°
2026-04-30 22:07 22.97154 97.66743 31896 ft 461 kts 262°
2026-04-30 22:08 22.96466 97.59805 31897 ft 461 kts 262°
2026-04-30 22:08 22.95826 97.52888 31910 ft 459 kts 264°
2026-04-30 22:09 22.95165 97.46001 31905 ft 459 kts 262°
2026-04-30 22:09 22.94345 97.39134 31913 ft 464 kts 262°
2026-04-30 22:10 22.93564 97.32155 31904 ft 467 kts 262°
2026-04-30 22:10 22.92812 97.25151 31905 ft 467 kts 262°
2026-04-30 22:11 22.91717 97.14701 31888 ft 460 kts 262°
2026-04-30 22:12 22.90977 97.07810 31909 ft 460 kts 262°
2026-04-30 22:12 22.90235 97.00953 31900 ft 461 kts 262°
2026-04-30 22:13 22.89487 96.94049 31906 ft 461 kts 262°
2026-04-30 22:13 22.88737 96.87133 31901 ft 462 kts 262°
2026-04-30 22:14 22.87984 96.80208 31893 ft 463 kts 263°
2026-04-30 22:14 22.87218 96.73261 31898 ft 465 kts 263°
2026-04-30 22:15 22.86451 96.66290 31885 ft 467 kts 262°
2026-04-30 22:15 22.85809 96.60467 31886 ft 467 kts 262°
2026-04-30 22:16 22.85034 96.53459 31874 ft 468 kts 262°
2026-04-30 22:17 22.83551 96.39454 31861 ft 463 kts 265°
2026-04-30 22:17 22.82353 96.29026 31870 ft 466 kts 263°
2026-04-30 22:18 22.81113 96.18524 31846 ft 470 kts 263°
2026-04-30 22:19 22.79913 96.07963 31831 ft 471 kts 264°
2026-04-30 22:20 22.78732 95.97449 31830 ft 470 kts 264°
2026-04-30 22:20 22.77493 95.86908 31809 ft 470 kts 264°
2026-04-30 22:21 22.76685 95.79879 31807 ft 469 kts 264°
2026-04-30 22:21 22.75874 95.72859 31806 ft 469 kts 264°
2026-04-30 22:22 22.75061 95.65860 31801 ft 468 kts 264°
2026-04-30 22:22 22.74241 95.58853 31802 ft 468 kts 264°
2026-04-30 22:23 22.73420 95.51860 31802 ft 468 kts 264°
2026-04-30 22:23 22.72598 95.44878 31801 ft 468 kts 264°
2026-04-30 22:24 22.71777 95.37932 31802 ft 468 kts 264°
2026-04-30 22:24 22.70948 95.30948 31798 ft 468 kts 263°
2026-04-30 22:25 22.70116 95.23965 31803 ft 467 kts 263°
2026-04-30 22:25 22.69279 95.16977 31798 ft 467 kts 264°
2026-04-30 22:26 22.68023 95.06515 31804 ft 467 kts 264°
2026-04-30 22:27 22.67182 94.99541 31802 ft 467 kts 264°
2026-04-30 22:27 22.65886 94.89099 31806 ft 465 kts 263°
2026-04-30 22:28 22.64642 94.78732 31803 ft 461 kts 263°
2026-04-30 22:29 22.62975 94.65066 31813 ft 457 kts 263°
2026-04-30 22:31 22.60027 94.41271 31811 ft 454 kts 263°
2026-04-30 22:32 22.57905 94.24353 31829 ft 454 kts 263°
2026-04-30 22:33 22.55761 94.07347 31842 ft 459 kts 262°
2026-04-30 22:35 22.53585 93.90273 31873 ft 460 kts 262°
2026-04-30 22:36 22.51455 93.73113 31894 ft 461 kts 261°
2026-04-30 22:37 22.49599 93.59382 31893 ft 461 kts 261°
2026-04-30 22:38 22.47816 93.45687 31926 ft 460 kts 261°
2026-04-30 22:39 22.46466 93.35383 31916 ft 460 kts 261°
2026-04-30 22:40 22.43758 93.14874 31917 ft 459 kts 261°
2026-04-30 22:41 22.41484 92.97823 31904 ft 460 kts 261°
2026-04-30 22:43 22.38713 92.77217 31876 ft 463 kts 261°
2026-04-30 22:44 22.36852 92.63464 31856 ft 465 kts 261°
2026-04-30 22:45 22.34023 92.42673 31850 ft 466 kts 261°
2026-04-30 22:47 22.31174 92.21901 31836 ft 466 kts 260°
2026-04-30 22:48 22.29284 92.08059 31826 ft 465 kts 260°
2026-04-30 22:49 22.26427 91.87341 31816 ft 464 kts 260°
2026-04-30 22:50 22.26832 91.73370 31812 ft 469 kts 275°
2026-04-30 22:51 22.27677 91.66380 31803 ft 470 kts 274°
2026-04-30 22:52 22.28886 91.55904 31802 ft 471 kts 274°
2026-04-30 22:53 22.30560 91.41857 31783 ft 469 kts 272°
2026-04-30 22:53 22.31672 91.31312 31790 ft 473 kts 274°
2026-04-30 22:55 22.33927 91.13641 31796 ft 477 kts 274°
2026-04-30 22:56 22.35677 90.99386 31777 ft 478 kts 274°
2026-04-30 22:57 22.37833 90.81631 31776 ft 477 kts 274°
2026-04-30 22:58 22.39562 90.67416 31776 ft 477 kts 273°
2026-04-30 22:59 22.42094 90.46068 31782 ft 478 kts 273°